Weather History for Monticello, AR

Change the Weather History Date:

Tuesday, December 4, 2012

  Actual Average Record
Temperature  
Mean Temperature 67 °F -  
Max Temperature 75 °F 59 °F 78 °F (1998)
Min Temperature 59 °F 34 °F 21 °F (2006)
Cooling Degree Days 2    
Growing Degree Days 17 (Base 50)    
Moisture  
Dew Point 60 °F    
Average Humidity 85    
Maximum Humidity 96    
Minimum Humidity 64    
Precipitation  
Precipitation 0.53 in - - ()
Sea Level Pressure  
Sea Level Pressure 30.13 in    
Wind  
Wind Speed 8 mph (SSW)    
Max Wind Speed 16 mph    
Max Gust Speed 25 mph    
Visibility 9 miles    
Events Rain , Thunderstorm    
Averages and records for this station are not official NWS values.
T = Trace of Precipitation, MM = Missing Value Source: NWS Daily Summary

Daily Weather History Graph

Daily Weather History Graph

Search for Another Location

Airport:

Trip Planner

Search our weather history database for the weather conditions in past years. The results will help you decide how hot, cold, wet, or windy it might be!

Date:

Astronomy

Dec. 04, 2012 Rise Set
Actual Time 6:56 AM CST 4:58 PM CST
Civil Twilight 6:29 AM CST 5:25 PM CST
Nautical Twilight 5:58 AM CST 5:56 PM CST
Astronomical Twilight 5:27 AM CST 6:26 PM CST
Moon 10:35 PM CST (12/4) 11:00 AM CST (12/4)
Length of Visible Light 10h 56m
Length of Day
10h 02m
Waning Gibbous, 69% of the Moon is Illuminated
Dec 4
Waning Gibbous
Dec 6
Last Quarter
Dec 13
New
Dec 19
First Quarter
Dec 28
Full

Hourly Weather History & Observations

Time (CST) Temp. Dew Point Humidity Pressure Visibility Wind Dir Wind Speed Gust Speed Precip Events Conditions
12:53 AM 68.0 °F 61.0 °F 78% 30.09 in 10.0 mi South 9.2 mph - N/A   Partly Cloudy
1:32 AM 68.0 °F 60.8 °F 78% 30.10 in 10.0 mi South 9.2 mph - N/A   Mostly Cloudy
1:53 AM 68.0 °F 61.0 °F 78% 30.10 in 10.0 mi South 9.2 mph - N/A   Overcast
2:25 AM 66.2 °F 60.8 °F 83% 30.10 in 10.0 mi South 6.9 mph - N/A   Mostly Cloudy
2:53 AM 66.9 °F 61.0 °F 81% 30.10 in 10.0 mi SSW 4.6 mph - N/A   Mostly Cloudy
3:53 AM 66.9 °F 61.0 °F 81% 30.09 in 10.0 mi South 5.8 mph - N/A   Overcast
4:20 AM 64.4 °F 60.8 °F 88% 30.09 in 10.0 mi South 5.8 mph - N/A   Scattered Clouds
4:53 AM 64.9 °F 61.0 °F 87% 30.09 in 10.0 mi SSE 6.9 mph - N/A   Mostly Cloudy
5:53 AM 64.0 °F 61.0 °F 90% 30.09 in 10.0 mi South 6.9 mph - N/A   Overcast
6:53 AM 64.9 °F 61.0 °F 87% 30.11 in 10.0 mi SSW 6.9 mph - 0.00 in Rain Light Rain
7:53 AM 66.0 °F 62.1 °F 87% 30.13 in 10.0 mi South 6.9 mph - 0.00 in   Mostly Cloudy
8:04 AM 66.2 °F 62.6 °F 88% 30.12 in 10.0 mi South 9.2 mph - N/A   Mostly Cloudy
8:26 AM 66.2 °F 62.6 °F 88% 30.14 in 10.0 mi SSW 9.2 mph - N/A   Mostly Cloudy
8:44 AM 68.0 °F 64.4 °F 88% 30.14 in 10.0 mi SSW 11.5 mph - N/A   Overcast
8:53 AM 68.0 °F 64.0 °F 87% 30.14 in 10.0 mi SSW 9.2 mph - N/A   Overcast
9:07 AM 69.8 °F 64.4 °F 83% 30.15 in 10.0 mi SSW 9.2 mph - N/A   Overcast
9:28 AM 69.8 °F 64.4 °F 83% 30.15 in 10.0 mi SW 6.9 mph - N/A   Overcast
9:53 AM 70.0 °F 64.0 °F 81% 30.15 in 10.0 mi SSW 9.2 mph - N/A   Overcast
10:53 AM 72.0 °F 64.0 °F 76% 30.13 in 10.0 mi SSW 12.7 mph - N/A   Overcast
11:53 AM 75.0 °F 64.0 °F 69% 30.11 in 10.0 mi SSW 11.5 mph - N/A   Mostly Cloudy
12:27 PM 73.4 °F 62.6 °F 69% 30.10 in 10.0 mi SSW 9.2 mph 23.0 mph N/A   Overcast
12:42 PM 75.2 °F 62.6 °F 65% 30.09 in 10.0 mi SSW 9.2 mph 17.3 mph N/A   Mostly Cloudy
12:53 PM 75.9 °F 63.0 °F 64% 30.08 in 10.0 mi SSW 10.4 mph 19.6 mph N/A   Mostly Cloudy
1:53 PM 73.0 °F 63.0 °F 71% 30.06 in 10.0 mi SW 8.1 mph - 0.00 in Rain Light Rain
2:02 PM 73.4 °F 64.4 °F 73% 30.07 in 10.0 mi SW 3.5 mph - 0.00 in Rain , Thunderstorm Light Rain
2:50 PM 71.6 °F 64.4 °F 78% 30.08 in 10.0 mi SSW 4.6 mph - 0.01 in   Mostly Cloudy
2:53 PM 71.1 °F 64.0 °F 78% 30.07 in 10.0 mi SW 5.8 mph - 0.01 in   Scattered Clouds
3:29 PM 62.6 °F 57.2 °F 82% 30.10 in 10.0 mi ENE 16.1 mph 25.3 mph N/A   Mostly Cloudy
3:36 PM 62.6 °F 57.2 °F 82% 30.11 in 10.0 mi NE 8.1 mph 23.0 mph N/A   Overcast
3:53 PM 61.0 °F 57.0 °F 87% 30.10 in 10.0 mi ENE 16.1 mph 20.7 mph N/A   Overcast
4:05 PM 60.8 °F 57.2 °F 88% 30.11 in 10.0 mi ENE 11.5 mph 23.0 mph N/A Thunderstorm Overcast
4:25 PM 62.6 °F 57.2 °F 82% 30.15 in 10.0 mi NE 10.4 mph - N/A Thunderstorm Overcast
4:46 PM 60.8 °F 57.2 °F 88% 30.12 in 3.0 mi Variable 6.9 mph - 0.06 in Rain , Thunderstorm Heavy Rain
4:53 PM 60.1 °F 57.9 °F 93% 30.12 in 2.5 mi North 4.6 mph - 0.14 in Rain , Thunderstorm Heavy Rain
5:06 PM 60.8 °F 57.2 °F 88% 30.12 in 1.0 mi NNW 3.5 mph - 0.25 in Rain , Thunderstorm Heavy Thunderstorms and Rain
5:18 PM 60.8 °F 57.2 °F 88% 30.12 in 3.0 mi WSW 9.2 mph 19.6 mph 0.35 in Rain , Thunderstorm Thunderstorms and Rain
5:53 PM 60.1 °F 59.0 °F 96% 30.12 in 10.0 mi Variable 4.6 mph - 0.37 in Rain Light Rain
6:28 PM 60.8 °F 59.0 °F 94% 30.14 in 10.0 mi SSE 3.5 mph - 0.00 in   Overcast
6:53 PM 60.1 °F 59.0 °F 96% 30.17 in 10.0 mi Calm Calm - 0.00 in   Overcast
7:11 PM 60.8 °F 57.2 °F 88% 30.18 in 10.0 mi West 3.5 mph - N/A   Overcast
7:23 PM 60.8 °F 59.0 °F 94% 30.17 in 10.0 mi North 3.5 mph - N/A   Overcast
7:53 PM 61.0 °F 59.0 °F 93% 30.17 in 10.0 mi Calm Calm - N/A   Overcast
8:51 PM 60.8 °F 57.2 °F 88% 30.20 in 10.0 mi NNE 5.8 mph - N/A   Overcast
8:53 PM 60.1 °F 57.9 °F 93% 30.19 in 10.0 mi North 3.5 mph - N/A   Overcast
9:01 PM 60.8 °F 57.2 °F 88% 30.20 in 10.0 mi NNE 6.9 mph - N/A   Overcast
9:32 PM 60.8 °F 57.2 °F 88% 30.19 in 10.0 mi NNE 4.6 mph - N/A   Overcast
9:53 PM 60.1 °F 57.0 °F 90% 30.19 in 10.0 mi NNE 3.5 mph - N/A   Overcast
10:31 PM 60.8 °F 57.2 °F 88% 30.20 in 10.0 mi Variable 4.6 mph - N/A   Overcast
10:53 PM 60.1 °F 57.9 °F 93% 30.19 in 6.0 mi Variable 3.5 mph - N/A   Overcast
11:40 PM 59.0 °F 57.2 °F 94% 30.20 in 2.5 mi NNE 8.1 mph - 0.00 in Rain Light Rain
11:53 PM 59.0 °F 57.9 °F 96% 30.20 in 3.0 mi NNE 5.8 mph - 0.01 in   Overcast